Wind_Speed
17 18 20 23 24 22 22 22 20 21 20 21 19 23 23 21 22 20 22 21 20 18 20 17 18 17 15 13 12 8 5 5
18 20 21 24 26 25 25 24 21 18 19 21 20 21 22 22 22 25 23 21 22 21 20 18 19 19 18 15 13 9 7 8
19 21 22 24 27 28 26 24 23 23 20 21 21 23 22 21 24 26 24 25 24 22 19 20 21 19 19 18 14 10 8 9
22 24 26 25 27 27 27 25 23 23 21 19 19 18 19 23 22 27 27 27 24 20 21 22 23 22 19 19 16 13 7 7
24 25 27 28 27 26 27 26 25 25 25 21 22 21 20 19 21 28 28 27 24 24 23 26 25 23 19 21 18 14 12 9
27 27 27 26 26 26 26 26 26 25 25 26 24 23 18 18 22 27 27 27 26 26 27 27 27 27 25 24 23 19 18 12
26 26 25 27 27 27 29 28 27 26 27 29 30 24 22 23 25 26 27 28 25 26 30 29 28 28 29 27 28 25 23 15
25 26 30 29 29 29 30 30 30 29 31 30 31 30 29 24 27 29 31 31 30 30 32 30 30 31 29 32 27 25 20 20
28 28 28 29 30 30 32 33 31 29 31 31 31 30 25 22 20 31 33 33 32 32 30 31 30 32 33 30 28 22 22 18
22 27 26 26 26 29 30 30 28 27 30 28 31 32 26 21 27 33 31 28 31 27 28 31 33 29 33 29 25 22 19 14
10 17 25 25 24 22 22 24 24 23 24 27 31 32 28 33 33 30 27 28 31 29 30 29 30 35 32 29 25 22 15 13
4 8 12 17 19 19 18 19 19 19 20 21 26 26 26 27 29 27 24 27 32 27 24 25 28 34 29 24 21 14 15 15
1 3 6 8 10 11 12 13 14 15 15 17 19 18 19 22 21 18 21 30 30 26 25 19 32 32 27 26 12 14 15 14
2 4 5 6 7 8 9 10 10 10 13 15 14 15 16 18 21 24 26 28 26 28 20 27 29 22 18 11 12 14 15 16
6 7 7 8 8 10 9 8 11 11 10 10 12 13 13 13 14 16 16 10 14 20 25 19 18 15 12 13 16 14 17 17
6 8 8 8 8 7 9 8 8 9 7 8 7 7 5 7 8 9 12 12 11 15 15 16 11 9 13 19 18 20 17 19
6 8 10 10 10 9 7 6 7 7 7 5 5 4 5 5 6 9 9 11 13 16 13 6 11 15 18 19 19 18 20 20
12 12 12 12 12 11 11 11 11 10 9 10 8 8 8 9 10 10 11 11 8 4 9 14 15 20 19 12 13 19 20 22
13 14 16 15 15 15 15 14 14 13 12 12 11 11 11 11 10 8 3 2 7 11 14 18 14 10 13 15 19 24 25 25
Wind_Direction
183 175 178 175 175 180 185 187 193 199 208 210 210 211 208 206 210 216 225 233 230 232 230 222 219 221 221 230 228 235 207 224
186 184 185 187 192 193 194 198 205 206 209 209 207 209 211 214 215 224 231 240 236 230 226 218 221 217 223 237 231 236 223 263
195 196 195 196 200 203 203 206 208 212 214 214 218 218 218 218 224 229 237 243 241 230 221 225 223 219 230 229 223 211 229 270
205 204 205 205 206 210 211 212 211 212 210 211 213 213 221 221 228 234 240 246 246 229 229 230 230 231 229 225 226 237 226 243
212 209 210 210 210 211 212 215 215 217 216 214 216 216 223 230 235 243 246 248 234 228 230 232 232 230 219 229 237 230 223 222
211 210 212 212 213 214 215 214 216 218 218 218 226 229 229 229 232 240 247 249 239 231 229 232 232 231 232 232 236 235 240 246
216 213 211 213 213 215 223 221 221 220 227 231 231 226 220 226 245 251 256 255 246 243 238 234 233 230 235 236 239 242 239 258
219 211 210 211 212 212 219 221 221 223 228 232 235 233 235 249 259 258 259 257 251 250 240 234 232 233 236 234 240 241 254 268
219 215 213 213 212 213 219 225 224 222 230 235 235 240 237 249 249 262 259 258 257 249 244 236 232 234 235 242 236 249 256 272
218 220 219 218 217 217 223 227 227 223 234 233 236 241 235 233 242 257 262 256 261 247 240 234 237 236 238 235 236 251 258 270
213 218 221 223 223 222 221 228 229 226 229 238 242 250 243 233 248 262 264 265 251 249 245 241 236 239 239 237 244 250 256 270
200 202 209 215 217 220 222 231 228 225 227 234 253 252 254 254 255 265 261 268 257 254 241 234 250 241 235 231 243 254 277 273
220 191 186 188 195 201 210 218 220 220 223 228 250 253 256 257 261 256 247 249 244 231 223 260 247 232 227 240 251 275 275 252
209 188 173 176 181 186 193 202 205 208 220 234 240 245 256 257 251 252 253 248 237 242 215 249 222 222 232 250 279 274 250 255
214 190 172 166 169 187 202 210 212 215 217 228 235 249 254 260 260 257 247 233 242 234 226 216 217 218 270 299 298 263 259 255
207 197 177 164 154 162 194 203 205 210 213 222 230 240 234 238 243 239 214 218 216 211 210 206 220 268 287 301 280 271 265 261
120 147 145 136 138 147 162 166 165 170 174 172 163 168 177 179 193 178 181 182 188 194 202 241 289 285 291 291 280 270 270 268
109 115 115 119 130 132 133 133 130 131 127 131 140 143 148 153 162 174 188 192 195 217 280 289 290 294 291 277 270 273 277 273
115 116 118 120 123 124 122 121 122 119 119 125 133 141 144 152 173 182 183 257 292 295 288 291 292 284 282 279 280 280 282 278
Height
1517 1520 1525 1529 1531 1535 1540 1542 1546 1548 1550 1552 1554 1559 1562 1563 1564 1566 1567 1569 1570 1570 1572 1573 1575 1575 1577 1579 1578 1580 1581 1582
1515 1518 1522 1526 1530 1532 1535 1538 1541 1545 1547 1549 1554 1555 1558 1558 1560 1563 1563 1565 1567 1567 1569 1569 1572 1573 1575 1573 1575 1577 1577 1577
1512 1515 1518 1522 1526 1528 1531 1534 1538 1540 1542 1545 1549 1551 1554 1557 1558 1557 1559 1562 1563 1563 1564 1566 1567 1570 1569 1570 1572 1573 1574 1574
1508 1511 1514 1517 1520 1524 1528 1531 1534 1536 1541 1544 1546 1548 1549 1550 1551 1552 1555 1557 1559 1559 1560 1562 1565 1565 1566 1567 1568 1569 1571 1570
1502 1506 1509 1512 1516 1521 1524 1528 1531 1533 1535 1538 1539 1543 1544 1545 1547 1548 1551 1554 1554 1554 1555 1558 1559 1561 1561 1562 1564 1565 1567 1568
1495 1499 1503 1507 1512 1515 1518 1522 1525 1528 1530 1533 1534 1536 1540 1543 1543 1546 1548 1547 1547 1549 1550 1552 1553 1555 1556 1557 1558 1559 1560 1562
1487 1493 1499 1502 1506 1509 1511 1515 1518 1522 1523 1526 1528 1532 1536 1536 1538 1541 1541 1542 1542 1543 1545 1546 1549 1551 1551 1552 1552 1552 1554 1555
1482 1487 1491 1496 1499 1502 1505 1509 1512 1515 1517 1520 1522 1526 1530 1531 1532 1533 1535 1536 1536 1537 1537 1540 1542 1545 1546 1546 1547 1549 1551 1548
1475 1479 1484 1488 1492 1495 1498 1501 1505 1509 1510 1513 1517 1521 1524 1525 1525 1525 1528 1529 1531 1530 1532 1535 1537 1539 1540 1542 1541 1545 1546 1544
1468 1473 1478 1483 1487 1489 1492 1496 1500 1504 1505 1508 1510 1513 1517 1518 1520 1519 1521 1524 1525 1524 1527 1530 1531 1534 1535 1538 1539 1539 1540 1539
1466 1469 1473 1477 1482 1486 1488 1490 1494 1499 1501 1502 1504 1505 1509 1512 1512 1513 1516 1518 1518 1519 1521 1524 1526 1528 1529 1533 1533 1534 1535 1535
1463 1465 1469 1473 1477 1480 1482 1485 1489 1493 1496 1497 1497 1500 1503 1506 1507 1508 1511 1511 1513 1515 1517 1518 1521 1523 1526 1529 1530 1530 1530 1531
1463 1464 1466 1468 1471 1475 1478 1481 1484 1488 1490 1492 1493 1495 1497 1500 1501 1503 1504 1504 1506 1508 1509 1515 1515 1514 1520 1524 1525 1526 1525 1526
1463 1463 1464 1466 1469 1472 1475 1477 1481 1484 1485 1487 1489 1491 1492 1494 1495 1496 1499 1500 1499 1504 1507 1509 1511 1517 1519 1520 1520 1520 1521 1522
1462 1463 1464 1466 1467 1469 1472 1475 1476 1478 1480 1483 1486 1487 1489 1491 1492 1493 1495 1498 1501 1503 1505 1508 1512 1515 1518 1516 1515 1515 1515 1515
1459 1461 1463 1465 1467 1468 1469 1471 1473 1475 1478 1480 1482 1484 1486 1487 1488 1490 1492 1495 1498 1501 1505 1508 1510 1512 1513 1513 1513 1513 1510 1510
1457 1459 1461 1462 1464 1466 1467 1469 1472 1474 1475 1477 1481 1483 1485 1486 1487 1490 1492 1495 1498 1501 1504 1506 1507 1507 1507 1507 1507 1507 1507 1505
1457 1459 1459 1460 1462 1464 1466 1468 1471 1472 1474 1478 1480 1482 1484 1486 1488 1490 1492 1495 1499 1502 1503 1503 1502 1502 1502 1502 1502 1502 1501 1500
1458 1458 1459 1460 1462 1464 1466 1469 1471 1473 1476 1478 1480 1482 1484 1486 1489 1491 1494 1497 1498 1499 1499 1498 1498 1499 1498 1498 1497 1495 1493 1491